ICEYE-X27

导读 | 星芒AI

ICEYE-X27 是 ICEYE 公司发射的第7颗合成孔径雷达(SAR)卫星,具备高分辨率和全天候成像能力。该卫星采用小型卫星平台,支持对地观测和实时监测,广泛应用于灾害管理、海洋监测和安全领域。作为 ICEYE 卫星星座的一部分,ICEYE-X27 提升了全球数据获取频率和覆盖能力,为用户提供更及时、精准的遥感数据服务。

基本信息
目录编号:
55062
目录名称:
ICEYE-X27
国际标识:
2023-001BF
轨道中心:
EARTH
卫星名称:
ICEYE-X27
卫星全名:
--
卫星状态:
在轨 (已飞行1030 天)
发射日期:
2023-01-03 UTC
国别 :
美国 (US)
星等 :
--
轨道信息
数据来源 国际轨道数据
星历时间: 2025-10-28T12:05:12+0800
1天前
查看轨道信息
半长轴: 6686.409km
偏心率: 0.000412
轨道倾角: 97.345°
近地点辐角 222.543°
升交点赤经 14.168°
平近点角 137.552°
近地点: 305.519km
远地点: 311.029km
周期: 90.688分钟
每日圈数: 15.878644
详细信息
使用方式:
暂无
2D轨道图
3D轨道图
轨道高度分析图
轨道倾角分析图
轨道综合分析图
查看轨道综合分析图